Location: ?????????
(54.7630°N, 39.4991°E)
Time: 19:53:33
(UTC+00:00)

Cosmos 2366 rocket - Pass Details

Date: 14 April 2026
Orbit: 954 x 996 km, 82.9° (Epoch: 19 May)

Event Time Altitude Azimuth Distance (km) Brightness Sun altitude
Rises 17:25:05 0° 172° (S) 3,640 6.6 -8.9°
Reaches altitude 10° 17:27:37 10° 168° (SSE) 2,693 5.9 -9.2°
Maximum altitude 17:33:35 55° 93° (E) 1,140 4.1 -9.9°
Drops below altitude 10° 17:39:34 10° 17° (NNE) 2,697 6.5 -10.6°
Sets 17:42:07 0° 14° (NNE) 3,647 7.3 -10.9°
